Regional Weather Roundup
Issued by NWS Burlington, VT

Home | Current Version | Previous Version | Text Only | Print | Product List | Glossary On
Versions: 1 2 3 4 5 6 7 8 9 10 11 12 13 14 15 16 17 18 19 20 21 22 23 24 25 26 27 28 29 30 31 32 33 34 35 36 37 38 39 40 41 42 43 44 45 46 47 48 49 50
000
ASUS41 KBTV 020830
RWRBTV
VERMONT REGIONAL WEATHER ROUNDUP
NATIONAL WEATHER SERVICE BURLINGTON VT
400 AM EDT THU OCT 02 2014

NOTE: "FAIR" INDICATES FEW OR NO CLOUDS BELOW 12,000 FEET WITH NO
SIGNIFICANT WEATHER AND/OR OBSTRUCTIONS TO VISIBILITY.

* THESE REPORTS ARE NOT UNDER NWS QUALITY CONTROL AND/OR DO NOT
  REPORT WEATHER SUCH AS PRECIPITATION AND FOG.

VTZ001>019-020900-
_____VERMONT_____


CITY           SKY/WX    TMP DP  RH WIND       PRES   REMARKS
BURLINGTON     CLOUDY    56  53  90 N5        30.14S FOG
MONTPELIER     CLOUDY    53  52  96 CALM      30.18R
MORRISVILLE    FOG       51  50  96 CALM      30.16S VSB 1/2
ST. JOHNSBURY*   N/A     48  47  96 MISG      30.14S
MIDDLEBURY*    CLOUDY    55  55 100 CALM      30.14S
RUTLAND*       CLOUDY    55  54  94 CALM      30.14R
SPRINGFIELD    CLOUDY    56  53  90 CALM      30.15S
HIGHGATE*      FOG       49  48  99 CALM      30.14S VSB 1/4
NEWPORT*       FOG      N/A N/A N/A CALM      30.16S VSB<1/4
BENNINGTON     CLOUDY    56  55  97 CALM      30.13R
SUTTON*          N/A     48 N/A N/A MISG        N/A
MT. MANSFIELD*   N/A     46 N/A N/A SE2         N/A

_____LAKE CHAMPLAIN_____


CITY           SKY/WX    TMP DP  RH WIND       PRES   REMARKS
BURTON ISLAND*   N/A     54  52  94 NW1         N/A
COLCHESTER RF*   N/A     55  52  88 N10         N/A
DIAMOND ISL*     N/A     57  54  88 N7          N/A

$$

NYZ007-026>031-035-052-083-020900-
_____NORTHERN NEW YORK_____


CITY           SKY/WX    TMP DP  RH WIND       PRES   REMARKS
PLATTSBURGH    CLOUDY    50  49  96 CALM      30.14S
SARANAC LAKE   CLOUDY    52  51  97 CALM      30.13S
MASSENA        SUNNY     46  46 100 CALM      30.14F
OGDENSBURG*    FOG       46  46 100 CALM      30.13S VSB 3/4
POTSDAM*       FOG       46  46 100 CALM      30.14R VSB 1/2
WATERTOWN      SUNNY     49  44  83 E3        30.12R HAZE
FT DRUM        SUNNY     51  51 100 SE3       30.12R
ALBANY         CLOUDY    59  56  89 NE3       30.13R
GLENS FALLS    CLOUDY   N/A N/A N/A CALM      30.13S

$$
NHZ002-005-011-020900-
_____NEW HAMPSHIRE_____


CITY           SKY/WX    TMP DP  RH WIND       PRES   REMARKS
LEBANON        CLOUDY    57  53  86 CALM      30.14R
KEENE          CLOUDY    55  46  71 CALM      30.14S
MT WASHINGTON  PTSUNNY   45  36  70 E12         N/A
PLYMOUTH       CLOUDY    55  54  95 CALM      30.16R
WHITEFIELD     CLOUDY    55  50  83 E7        30.14S

$$

_____REGIONAL QUEBEC LOCATIONS_____


CITY           SKY/WX    TMP DP  RH WIND       PRES   REMARKS
MONTREAL       MOSUNNY   50  46  87 N9        30.15S
QUEBEC CITY    SUNNY     41  39  93 NE9       30.22F
SHERBROOKE     SUNNY     46  45  93 NE7       30.16S

_____REGIONAL ONTARIO LOCATIONS_____


CITY           SKY/WX    TMP DP  RH WIND       PRES   REMARKS
OTTAWA         PTSUNNY   48  48 100 NE7       30.15S

______KEY______
VSB  - VISIBILITY IN MILES
WCI  - WIND CHILL INDEX
HX   - HEAT INDEX
$$



USA.gov is the U.S. government's official web portal to all federal, state and local government web resources and services.